OneWeb SL0185

operational
NORAD ID: 48220 Int'l Des: 2021-031 Owner: ONEWEBN Country: UK Constellation: oneweb
LEOCIRCULARPOLARONEWEB_TYPE

Über OneWeb SL0185

Beschreibung wird geladen...

Live-Position

3D-Globus wird geladen...

Nächste Überflüge

Höhenverlauf

Altitude vs Time

uPlot chart will show altitude changes over time

Zweizeiliger Elementsatz

1 48220U 21031L 26034.47889679 .00000076 00000-0 17106-3 0 9997
2 48220 87.9032 316.3479 0002122 79.3276 280.8092 13.14503347230680
Epoch: 3. Feb. 2026 • Age: 12 hours

Aktueller Status

Höhe 1216.5 km
Geschwindigkeit 7.24 km/s
Subsatellitenpunkt -26.05°S, 10.64°E
Startdatum 25. Apr. 2021
Alter 4.7 years
Typ internet

Technische Details

Klassifizierung Payload
Masse 148.00 kg
Trockenmasse 140.00 kg
Gesamtmasse 148.00 kg
Länge 1.30 m
Durchmesser 1.00 m
Spannweite 5.00 m
Form Trapezoid+2 pan
Hersteller ONEWUS
Bus-Typ ARROW
Phasenstatus In Orbit
Besitzer/Staat ONEWEBN/UK

Große Konstellationen

Loading constellations...